Home   Weather   Corona   Past weeks
Flag for USA

Past Weather in Corona, California, USA — Yesterday and Last 2 Weeks

Now
54 °F

Fog.


Feels Like: 54 °F
Forecast: 49 / 63 °F
Wind: No wind

Location: Chino Airport

Current Time: Dec 17, 2018 at 1:50:05 am

Latest Report: Dec 17, 2018 at 12:53 am


Visibility: 4 mi

Pressure: 30.14 "Hg

Humidity: 93%

Dew Point: 52 °F

Location of CoronaLocation

Past Weather in Corona — Graph

°F

Corona Temperature Yesterday

Maximum temperature yesterday: 75 °F (at 1:53 pm)
Minimum temperature yesterday: 39 °F (at 6:53 am)
Average temperature yesterday: 55 °F

High & Low Weather Summary for the Past Weeks

 TemperatureHumidityPressure
High78 °F (Dec 13, 11:53 am)100% (Dec 5, 11:53 pm)30.30 "Hg (Dec 5, 11:53 pm)
Low39 °F (Dec 16, 6:53 am)12% (Dec 13, 2:53 pm)29.87 "Hg (Dec 6, 5:53 am)
Average55 °F69%30.09 "Hg
* Reported Dec 1 11:53 pm — Dec 16 11:53 pm, Corona. Weather by CustomWeather, © 2018

Note: Actual official high and low records may vary slightly from our data, if they occured in-between our weather recording intervals... More about our weather records

Advertising

Corona Weather History for the Previous 24 Hours

Scroll right to see more
 ConditionsComfort  
Time TempWeatherWind HumidityBarometerVisibility
11:53 pm
Sun, Dec 16
52 °FFog.3 mph97%30.15 "Hg3 mi
11:00 pm52 °FFog.No wind93%30.16 "Hg4 mi
9:53 pm54 °FFog.No wind90%30.15 "Hg6 mi
8:53 pm55 °FClear.No wind87%30.15 "Hg10 mi
7:53 pm57 °FClear.6 mph83%30.15 "Hg10 mi
6:53 pm56 °FPassing clouds.6 mph81%30.14 "Hg10 mi
5:53 pm58 °FClear.7 mph67%30.13 "Hg10 mi
4:53 pm61 °FPassing clouds.No wind65%30.11 "Hg10 mi
3:53 pm69 °FScattered clouds.9 mph47%30.10 "Hg10 mi
2:53 pm75 °FScattered clouds.9 mph27%30.09 "Hg10 mi
1:53 pm75 °FScattered clouds.No wind21%30.08 "Hg10 mi
12:53 pm72 °FScattered clouds.No wind22%30.10 "Hg10 mi
11:53 am69 °FScattered clouds.3 mph25%30.12 "Hg10 mi
10:53 am65 °FPassing clouds.3 mph31%30.15 "Hg10 mi
9:53 am60 °FPassing clouds.5 mph44%30.18 "Hg10 mi
8:53 am52 °FPassing clouds.3 mph69%30.17 "Hg10 mi
7:53 am44 °FPassing clouds.No wind85%30.15 "Hg10 mi
6:53 am39 °FPassing clouds.No wind86%30.14 "Hg10 mi
5:53 am41 °FFog.No wind86%30.12 "Hg6 mi
4:53 am40 °FClear.5 mph83%30.11 "Hg6 mi
3:53 am40 °FClear.5 mph83%30.11 "Hg7 mi
2:53 am43 °FClear.No wind82%30.11 "Hg7 mi
1:53 am44 °FClear.No wind73%30.11 "Hg7 mi
Weather by CustomWeather, © 2018

See weather overview